Time,TemperatureF,DewpointF,PressureIn,WindDirection,WindDirectionDegrees,WindSpeedMPH,WindSpeedGustMPH,Humidity,HourlyPrecipIn,Conditions,Clouds,dailyrainin,SolarRadiationWatts/m^2,SoftwareType,DateUTC
2013-07-09 00:11:00,70.0,40.0,-100.00,SW,231,5.0,6.0,33,0.00,,,0.00,0.000000,,2013-07-09 06:11:00,
2013-07-09 00:22:00,70.0,40.0,-100.00,SW,231,5.0,6.0,33,0.00,,,0.00,0.000000,,2013-07-09 06:22:00,
2013-07-09 00:33:00,70.0,40.0,-100.00,SW,231,5.0,6.0,33,0.00,,,0.00,0.000000,,2013-07-09 06:33:00,
2013-07-09 00:43:00,70.0,40.0,-100.00,SW,231,5.0,6.0,33,0.00,,,0.00,0.000000,,2013-07-09 06:43:00,
2013-07-09 00:51:00,68.0,40.0,-100.00,WSW,251,6.0,7.0,36,0.00,,,0.00,0.000000,,2013-07-09 06:51:00,
2013-07-09 01:12:00,68.0,40.0,-100.00,WSW,251,6.0,7.0,36,0.00,,,0.00,0.000000,,2013-07-09 07:12:00,
2013-07-09 01:22:00,68.0,40.0,-100.00,WSW,251,6.0,7.0,36,0.00,,,0.00,0.000000,,2013-07-09 07:22:00,
2013-07-09 01:34:00,68.0,40.0,-100.00,WSW,251,6.0,7.0,36,0.00,,,0.00,0.000000,,2013-07-09 07:34:00,
2013-07-09 01:43:00,68.0,40.0,-100.00,WSW,251,6.0,7.0,36,0.00,,,0.00,0.000000,,2013-07-09 07:43:00,
2013-07-09 01:51:00,70.0,41.0,-100.00,East,79,3.0,8.0,35,0.00,,,0.00,0.000000,,2013-07-09 07:51:00,
2013-07-09 02:11:00,70.0,41.0,-100.00,East,79,3.0,8.0,35,0.00,,,0.00,0.000000,,2013-07-09 08:11:00,
2013-07-09 02:22:00,70.0,41.0,-100.00,East,79,3.0,8.0,35,0.00,,,0.00,0.000000,,2013-07-09 08:22:00,
2013-07-09 02:33:00,70.0,41.0,-100.00,East,79,3.0,8.0,35,0.00,,,0.00,0.000000,,2013-07-09 08:33:00,
2013-07-09 02:43:00,70.0,41.0,-100.00,East,79,3.0,8.0,35,0.00,,,0.00,0.000000,,2013-07-09 08:43:00,
2013-07-09 02:51:00,70.0,41.0,-100.00,SE,137,3.0,7.0,35,0.00,,,0.00,0.000000,,2013-07-09 08:51:00,
2013-07-09 03:12:00,70.0,41.0,-100.00,SE,137,3.0,7.0,35,0.00,,,0.00,0.000000,,2013-07-09 09:12:00,
2013-07-09 03:22:00,70.0,41.0,-100.00,SE,137,3.0,7.0,35,0.00,,,0.00,0.000000,,2013-07-09 09:22:00,
2013-07-09 03:34:00,70.0,41.0,-100.00,SE,137,3.0,7.0,35,0.00,,,0.00,0.000000,,2013-07-09 09:34:00,
2013-07-09 03:42:00,70.0,41.0,-100.00,SE,137,3.0,7.0,35,0.00,,,0.00,0.000000,,2013-07-09 09:42:00,
2013-07-09 03:51:00,68.0,41.0,-100.00,ENE,62,5.0,10.0,37,0.00,,,0.00,0.000000,,2013-07-09 09:51:00,
2013-07-09 04:11:00,68.0,41.0,-100.00,ENE,62,5.0,10.0,37,0.00,,,0.00,0.000000,,2013-07-09 10:11:00,
2013-07-09 04:22:00,68.0,41.0,-100.00,ENE,62,5.0,10.0,37,0.00,,,0.00,0.000000,,2013-07-09 10:22:00,
2013-07-09 04:33:00,68.0,41.0,-100.00,ENE,62,5.0,10.0,37,0.00,,,0.00,0.000000,,2013-07-09 10:33:00,
2013-07-09 04:42:00,68.0,41.0,-100.00,ENE,62,5.0,10.0,37,0.00,,,0.00,0.000000,,2013-07-09 10:42:00,
2013-07-09 04:51:00,65.0,41.0,-100.00,ENE,76,3.0,10.0,41,0.00,,,0.00,0.000000,,2013-07-09 10:51:00,
2013-07-09 05:11:00,65.0,41.0,-100.00,ENE,76,3.0,10.0,41,0.00,,,0.00,0.000000,,2013-07-09 11:11:00,
2013-07-09 05:22:00,65.0,41.0,-100.00,ENE,76,3.0,10.0,41,0.00,,,0.00,0.000000,,2013-07-09 11:22:00,
2013-07-09 05:33:00,65.0,41.0,-100.00,ENE,76,3.0,10.0,41,0.00,,,0.00,0.000000,,2013-07-09 11:33:00,
2013-07-09 05:42:00,65.0,41.0,-100.00,ENE,76,3.0,10.0,41,0.00,,,0.00,0.000000,,2013-07-09 11:42:00,
2013-07-09 05:51:00,63.0,41.0,-100.00,NNE,28,1.0,9.0,44,0.00,,,0.00,0.000000,,2013-07-09 11:51:00,
2013-07-09 06:11:00,63.0,41.0,-100.00,NNE,28,1.0,9.0,44,0.00,,,0.00,0.000000,,2013-07-09 12:11:00,
2013-07-09 06:22:00,63.0,41.0,-100.00,NNE,28,1.0,9.0,44,0.00,,,0.00,0.000000,,2013-07-09 12:22:00,
2013-07-09 06:33:00,63.0,41.0,-100.00,NNE,28,1.0,9.0,44,0.00,,,0.00,0.000000,,2013-07-09 12:33:00,
2013-07-09 06:43:00,63.0,41.0,-100.00,NNE,28,1.0,9.0,44,0.00,,,0.00,0.000000,,2013-07-09 12:43:00,
2013-07-09 06:51:00,64.0,41.0,-100.00,NE,48,2.0,6.0,43,0.00,,,0.00,32.000000,,2013-07-09 12:51:00,
2013-07-09 07:11:00,64.0,41.0,-100.00,NE,48,2.0,6.0,43,0.00,,,0.00,32.000000,,2013-07-09 13:11:00,
2013-07-09 07:22:00,64.0,41.0,-100.00,NE,48,2.0,6.0,43,0.00,,,0.00,32.000000,,2013-07-09 13:22:00,
2013-07-09 07:33:00,64.0,41.0,-100.00,NE,48,2.0,6.0,43,0.00,,,0.00,32.000000,,2013-07-09 13:33:00,
2013-07-09 07:43:00,64.0,41.0,-100.00,NE,48,2.0,6.0,43,0.00,,,0.00,32.000000,,2013-07-09 13:43:00,
2013-07-09 07:51:00,68.0,43.0,-100.00,East,96,3.0,8.0,40,0.00,,,0.00,149.000000,,2013-07-09 13:51:00,
2013-07-09 08:11:00,68.0,43.0,-100.00,East,96,3.0,8.0,40,0.00,,,0.00,149.000000,,2013-07-09 14:11:00,
2013-07-09 08:22:00,68.0,43.0,-100.00,East,96,3.0,8.0,40,0.00,,,0.00,149.000000,,2013-07-09 14:22:00,
2013-07-09 08:34:00,68.0,43.0,-100.00,East,96,3.0,8.0,40,0.00,,,0.00,149.000000,,2013-07-09 14:34:00,
2013-07-09 08:43:00,68.0,43.0,-100.00,East,96,3.0,8.0,40,0.00,,,0.00,149.000000,,2013-07-09 14:43:00,
2013-07-09 08:51:00,73.0,42.0,-100.00,ENE,65,3.0,9.0,33,0.00,,,0.00,439.000000,,2013-07-09 14:51:00,
2013-07-09 09:12:00,73.0,42.0,-100.00,ENE,65,3.0,9.0,33,0.00,,,0.00,439.000000,,2013-07-09 15:12:00,
2013-07-09 09:22:00,73.0,42.0,-100.00,ENE,65,3.0,9.0,33,0.00,,,0.00,439.000000,,2013-07-09 15:22:00,
2013-07-09 09:33:00,73.0,42.0,-100.00,ENE,65,3.0,9.0,33,0.00,,,0.00,439.000000,,2013-07-09 15:33:00,
2013-07-09 09:43:00,73.0,42.0,-100.00,ENE,65,3.0,9.0,33,0.00,,,0.00,439.000000,,2013-07-09 15:43:00,
2013-07-09 09:51:00,77.0,44.0,-100.00,North,7,2.0,9.0,31,0.00,,,0.00,699.000000,,2013-07-09 15:51:00,
2013-07-09 10:22:00,77.0,44.0,-100.00,North,7,2.0,9.0,31,0.00,,,0.00,699.000000,,2013-07-09 16:22:00,
2013-07-09 10:34:00,77.0,44.0,-100.00,North,7,2.0,9.0,31,0.00,,,0.00,699.000000,,2013-07-09 16:34:00,
2013-07-09 10:43:00,77.0,44.0,-100.00,North,7,2.0,9.0,31,0.00,,,0.00,699.000000,,2013-07-09 16:43:00,
2013-07-09 10:51:00,82.0,45.0,-100.00,NNE,32,5.0,8.0,27,0.00,,,0.00,899.000000,,2013-07-09 16:51:00,
2013-07-09 11:11:00,82.0,45.0,-100.00,NNE,32,5.0,8.0,27,0.00,,,0.00,899.000000,,2013-07-09 17:11:00,
2013-07-09 11:22:00,82.0,45.0,-100.00,NNE,32,5.0,8.0,27,0.00,,,0.00,899.000000,,2013-07-09 17:22:00,
2013-07-09 11:35:00,82.0,45.0,-100.00,NNE,32,5.0,8.0,27,0.00,,,0.00,899.000000,,2013-07-09 17:35:00,
2013-07-09 11:45:00,82.0,45.0,-100.00,NNE,32,5.0,8.0,27,0.00,,,0.00,899.000000,,2013-07-09 17:45:00,
2013-07-09 11:51:00,89.0,43.0,-100.00,North,4,3.0,8.0,20,0.00,,,0.00,1075.000000,,2013-07-09 17:51:00,
2013-07-09 12:11:00,89.0,43.0,-100.00,North,4,3.0,8.0,20,0.00,,,0.00,1075.000000,,2013-07-09 18:11:00,
2013-07-09 12:22:00,89.0,43.0,-100.00,North,4,3.0,8.0,20,0.00,,,0.00,1075.000000,,2013-07-09 18:22:00,
2013-07-09 12:32:00,89.0,43.0,-100.00,North,4,3.0,8.0,20,0.00,,,0.00,1075.000000,,2013-07-09 18:32:00,
2013-07-09 12:43:00,89.0,43.0,-100.00,North,4,3.0,8.0,20,0.00,,,0.00,1075.000000,,2013-07-09 18:43:00,
2013-07-09 12:51:00,90.0,41.0,-100.00,North,349,6.0,15.0,18,0.00,,,0.00,1178.000000,,2013-07-09 18:51:00,
2013-07-09 13:22:00,90.0,41.0,-100.00,North,349,6.0,15.0,18,0.00,,,0.00,1178.000000,,2013-07-09 19:22:00,
2013-07-09 13:33:00,90.0,41.0,-100.00,North,349,6.0,15.0,18,0.00,,,0.00,1178.000000,,2013-07-09 19:33:00,
2013-07-09 13:42:00,90.0,41.0,-100.00,North,349,6.0,15.0,18,0.00,,,0.00,1178.000000,,2013-07-09 19:42:00,
2013-07-09 13:51:00,91.0,37.0,-100.00,NNW,333,12.0,23.0,15,0.00,,,0.00,1288.000000,,2013-07-09 19:51:00,
2013-07-09 14:22:00,91.0,37.0,-100.00,NNW,333,12.0,23.0,15,0.00,,,0.00,1288.000000,,2013-07-09 20:22:00,
2013-07-09 14:32:00,91.0,37.0,-100.00,NNW,333,12.0,23.0,15,0.00,,,0.00,1288.000000,,2013-07-09 20:32:00,
2013-07-09 14:42:00,91.0,37.0,-100.00,NNW,333,12.0,23.0,15,0.00,,,0.00,1288.000000,,2013-07-09 20:42:00,
2013-07-09 14:51:00,93.0,33.0,-100.00,North,357,7.0,14.0,12,0.00,,,0.00,1246.000000,,2013-07-09 20:51:00,
2013-07-09 15:11:00,93.0,33.0,-100.00,North,357,7.0,14.0,12,0.00,,,0.00,1246.000000,,2013-07-09 21:11:00,
2013-07-09 15:22:00,93.0,33.0,-100.00,North,357,7.0,14.0,12,0.00,,,0.00,1246.000000,,2013-07-09 21:22:00,
2013-07-09 15:32:00,93.0,33.0,-100.00,North,357,7.0,14.0,12,0.00,,,0.00,1246.000000,,2013-07-09 21:32:00,
2013-07-09 15:42:00,93.0,33.0,-100.00,North,357,7.0,14.0,12,0.00,,,0.00,1246.000000,,2013-07-09 21:42:00,
2013-07-09 16:11:00,90.0,33.0,-100.00,NNW,345,7.0,17.0,13,0.00,,,0.00,591.000000,,2013-07-09 22:11:00,
2013-07-09 16:22:00,90.0,33.0,-100.00,NNW,345,7.0,17.0,13,0.00,,,0.00,591.000000,,2013-07-09 22:22:00,
2013-07-09 16:33:00,90.0,33.0,-100.00,NNW,345,7.0,17.0,13,0.00,,,0.00,591.000000,,2013-07-09 22:33:00,
2013-07-09 16:51:00,93.0,33.0,-100.00,NE,49,4.0,12.0,12,0.00,,,0.00,808.000000,,2013-07-09 22:51:00,
2013-07-09 17:22:00,93.0,33.0,-100.00,NE,49,4.0,12.0,12,0.00,,,0.00,808.000000,,2013-07-09 23:22:00,
2013-07-09 17:33:00,93.0,33.0,-100.00,NE,49,4.0,12.0,12,0.00,,,0.00,808.000000,,2013-07-09 23:33:00,
2013-07-09 17:43:00,93.0,33.0,-100.00,NE,49,4.0,12.0,12,0.00,,,0.00,808.000000,,2013-07-09 23:43:00,
2013-07-09 17:51:00,92.0,34.0,-100.00,NNE,32,5.0,13.0,13,0.00,,,0.00,523.000000,,2013-07-09 23:51:00,
2013-07-09 18:11:00,92.0,34.0,-100.00,NNE,32,5.0,13.0,13,0.00,,,0.00,523.000000,,2013-07-10 00:11:00,
2013-07-09 18:22:00,92.0,34.0,-100.00,NNE,32,5.0,13.0,13,0.00,,,0.00,523.000000,,2013-07-10 00:22:00,
2013-07-09 18:33:00,92.0,34.0,-100.00,NNE,32,5.0,13.0,13,0.00,,,0.00,523.000000,,2013-07-10 00:33:00,
2013-07-09 19:22:00,89.0,34.0,-100.00,North,356,3.0,10.0,14,0.00,,,0.00,372.000000,,2013-07-10 01:22:00,
2013-07-09 19:33:00,89.0,34.0,-100.00,North,356,3.0,10.0,14,0.00,,,0.00,372.000000,,2013-07-10 01:33:00,
2013-07-09 20:11:00,89.0,35.0,-100.00,ENE,75,1.0,7.0,15,0.00,,,0.00,205.000000,,2013-07-10 02:11:00,
2013-07-09 20:22:00,89.0,35.0,-100.00,ENE,75,1.0,7.0,15,0.00,,,0.00,205.000000,,2013-07-10 02:22:00,
2013-07-09 20:51:00,83.0,35.0,-100.00,East,83,2.0,4.0,18,0.00,,,0.00,27.000000,,2013-07-10 02:51:00,
2013-07-09 21:11:00,83.0,35.0,-100.00,East,83,2.0,4.0,18,0.00,,,0.00,27.000000,,2013-07-10 03:11:00,
2013-07-09 21:22:00,83.0,35.0,-100.00,East,83,2.0,4.0,18,0.00,,,0.00,27.000000,,2013-07-10 03:22:00,
2013-07-09 21:32:00,83.0,35.0,-100.00,East,83,2.0,4.0,18,0.00,,,0.00,27.000000,,2013-07-10 03:32:00,
2013-07-09 21:51:00,77.0,34.0,-100.00,West,261,3.0,4.0,21,0.00,,,0.00,0.000000,,2013-07-10 03:51:00,
2013-07-09 22:11:00,77.0,34.0,-100.00,West,261,3.0,4.0,21,0.00,,,0.00,0.000000,,2013-07-10 04:11:00,
2013-07-09 22:22:00,77.0,34.0,-100.00,West,261,3.0,4.0,21,0.00,,,0.00,0.000000,,2013-07-10 04:22:00,
2013-07-09 22:32:00,77.0,34.0,-100.00,West,261,3.0,4.0,21,0.00,,,0.00,0.000000,,2013-07-10 04:32:00,
2013-07-09 22:43:00,77.0,34.0,-100.00,West,261,3.0,4.0,21,0.00,,,0.00,0.000000,,2013-07-10 04:43:00,
2013-07-09 22:51:00,76.0,36.0,-100.00,ESE,121,2.0,5.0,23,0.00,,,0.00,0.000000,,2013-07-10 04:51:00,
2013-07-09 23:22:00,76.0,36.0,-100.00,ESE,121,2.0,5.0,23,0.00,,,0.00,0.000000,,2013-07-10 05:22:00,
2013-07-09 23:32:00,76.0,36.0,-100.00,ESE,121,2.0,5.0,23,0.00,,,0.00,0.000000,,2013-07-10 05:32:00,
2013-07-09 23:42:00,76.0,36.0,-100.00,ESE,121,2.0,5.0,23,0.00,,,0.00,0.000000,,2013-07-10 05:42:00,
2013-07-09 23:51:00,74.0,37.0,-100.00,NW,314,1.0,5.0,26,0.00,,,0.00,0.000000,,2013-07-10 05:51:00,